Location: ??????????
(54.8537°N, 38.8755°E)
Time: 01:27:52
(UTC+00:00)

Transit 2A Rocket - Pass Details

Date: 19 September 2024
Orbit: 583 x 908 km, 66.7° (Epoch: 15 October)

Event Time Altitude Azimuth Distance (km) Brightness Sun altitude
Exits shadow 20:02:50 24° 57° (ENE) 1,811 6.9 -32.0°
Drops below altitude 10° 20:05:09 10° 48° (NE) 2,595 7.9 -32.1°
Sets 20:07:43 0° 43° (NE) 3,523 8.7 -32.3°
